Location: ?????????
(38.5999°N, 22.7695°E)
Time: 16:29:37
(UTC+00:00)

Cosmos 1833 - Pass Details

Date: 23 May 2024
Orbit: 835 x 863 km, 70.9° (Epoch: 24 June)

Event Time Altitude Azimuth Distance (km) Brightness Sun altitude
Exits shadow 01:16:18 33° 220° (SW) 1,391 4.8 -18.5°
Maximum altitude 01:18:53 69° 294° (WNW) 902 4.2 -18.2°
Drops below altitude 10° 01:24:31 10° 18° (NNE) 2,461 7.6 -17.4°
Sets 01:26:59 0° 21° (NNE) 3,396 8.6 -17.1°
